User: anonymous   Login
Location: Unspecified
(0.0000°N, 0.0000°E)
Time: 01:00:18
(UTC+00:00)
Language:

Relay 1 - Orbit

View from above orbital plane
View from above orbital plane
View from above satellite
View from above satellite

Ground track
Ground track

The orbit data is extracted from the following two-line orbital elements,

1   503U 62068A   19022.83965030 -.00000022  00000-0  00000+0 0  9992
2   503  47.5060 282.8662 2840113 181.8810 323.6929  7.78159208595349
Epoch (UTC): 22 January 2019 20:09:05
Eccentricity: 0.2840113
inclination: 47.5060°
perigee height: 1324 km
apogee height: 7434 km
right ascension of ascending node: 282.8662°
argument of perigee: 181.8810°
revolutions per day: 7.78159208
mean anomaly at epoch: 323.6929°
orbit number at epoch: 59534

The dashed part of the orbit path shows where the satellite is in the earth's shadow,  

DLR